Home   Weather   Blumenau   Past weeks

Flag for Brazil Past Weather in Blumenau, Santa Catarina, Brazil — Yesterday and Last 2 Weeks

Now
75 °F

Sunny.


Feels Like: 78 °F
Forecast: 48 / 75 °F
Wind: 9 mph from North

Location: Florianopolis Aeroporto

Current Time: Apr 30, 2017 at 2:04:10 pm

Latest Report: Apr 30, 2017 at 1:00 pm


Visibility: 10 mi

Pressure: 30.21 "Hg

Humidity: 44%

Dew Point: 52 °F

Location of BlumenauLocation

Past Weather in Blumenau — Graph

°F

Blumenau Temperature Yesterday

Maximum temperature yesterday: 75 °F (at 3:00 pm)
Minimum temperature yesterday: 57 °F (at 7:00 am)
Average temperature yesterday: 64 °F

High & Low Weather Summary for the Past Weeks

 TemperatureHumidityPressure
High82 °F (Apr 15, 1:00 pm)100% (Apr 15, 9:00 pm)30.27 "Hg (Apr 15, 9:00 pm)
Low36 °F (Apr 15, 9:00 pm)23% (Apr 29, 2:00 pm)29.53 "Hg (Apr 26, 8:00 am)
Average69 °F76%30.03 "Hg
* Reported Apr 15 1:00 pm — Apr 30 1:00 pm, Blumenau, Weather by CustomWeather, © 2017

Note: Actual official high and low records may vary slightly from our data, if they occured in-between our weather recording intervals... More about our weather records

Advertising

Blumenau Weather History for the Previous 24 Hours

Scroll right to see more
 ConditionsComfort  
Time TempWeatherWind HumidityBarometerVisibility
1:00 pm
Sun, Apr 30
75 °FSunny.9 mph44%30.21 "Hg10 mi
12:00 pm73 °FSunny.10 mph41%30.24 "Hg10 mi
11:00 am70 °FSunny.7 mph57%30.27 "Hg10 mi
10:00 am66 °FSunny.6 mph73%30.27 "Hg10 mi
9:00 am64 °FSunny.3 mph73%30.27 "Hg10 mi
8:00 am63 °FSunny.5 mph73%30.27 "Hg10 mi
7:00 am59 °FSunny.5 mph82%30.24 "Hg10 mi
6:00 am59 °FClear.5 mph82%30.24 "Hg10 mi
5:00 am57 °FClear.6 mph82%30.27 "Hg10 mi
4:00 am59 °FClear.6 mph77%30.27 "Hg10 mi
3:00 am59 °FClear.6 mph77%30.27 "Hg10 mi
2:00 am59 °FClear.6 mph77%30.27 "Hg10 mi
1:00 am59 °FClear.3 mph77%30.27 "Hg10 mi
12:00 am61 °FClear.6 mph72%30.27 "Hg10 mi
11:00 pm
Sat, Apr 29
61 °FClear.6 mph77%30.27 "Hg10 mi
10:00 pm61 °FClear.6 mph77%30.27 "Hg10 mi
9:00 pm59 °FClear.No wind88%30.27 "Hg10 mi
8:00 pm61 °FClear.No wind83%30.27 "Hg10 mi
7:00 pm63 °FClear.No wind77%30.24 "Hg10 mi
6:00 pm66 °FClear.3 mph68%30.24 "Hg10 mi
5:00 pm70 °FSunny.7 mph57%30.21 "Hg10 mi
4:00 pm73 °FSunny.8 mph47%30.21 "Hg10 mi
3:00 pm75 °FSunny.3 mph27%30.18 "Hg10 mi
2:00 pm73 °FSunny.3 mph23%30.21 "Hg10 mi
Weather by CustomWeather, © 2017

See weather overviewHow to use our weather pages